Regional Weather Roundup
Issued by NWS

Home | Current Version | Previous Version | Graphics & Text | Print | Product List | Glossary On
Versions: 1 2 3 4 5 6 7 8 9 10 11 12 13 14 15 16 17 18 19 20 21 22 23 24 25 26 27 28 29 30 31 32 33 34 35 36 37 38 39 40 41 42 43 44 45 46 47 48 49 50
000
ASUS45 KBOI 311210
RWRID
WEATHER ROUNDUP FOR IDAHO
NATIONAL WEATHER SERVICE BOISE ID
600 AM MDT THU JUL 31 2014

NOTE: "FAIR" INDICATES FEW OR NO CLOUDS BELOW 12000 FEET
WITH NO SIGNIFICANT WEATHER AND/OR OBSTRUCTIONS TO VISIBILITY

IDZ012-014-311300-
SOUTHWEST IDAHO


CITY           SKY/WX    TMP DP  RH WIND       PRES   REMARKS
BOISE          MOCLDY    70  47  43 NW3       30.10R
CALDWELL       MOCLDY    61  46  59 NE6       30.12R
MOUNTAIN HOME  MOCLDY    65  51  58 NE3       30.12R
$$

IDZ016-017-311300-
SOUTHCENTRAL IDAHO


CITY           SKY/WX    TMP DP  RH WIND       PRES   REMARKS
BURLEY         CLEAR     57  52  83 NW3       30.18R
JEROME         CLEAR     61  49  64 NE14      30.18R
TWIN FALLS     CLEAR     59  48  67 SE9       30.17S
$$

IDZ019>023-311300-
SOUTHEAST IDAHO


CITY           SKY/WX    TMP DP  RH WIND       PRES   REMARKS
IDAHO FALLS    CLEAR     49  46  90 N5        30.27R
POCATELLO      CLEAR     51  47  86 N3        30.24R
REXBURG        CLEAR     51  47  86 NE5       30.28S
$$

IDZ006-010-011-018-031-032-311300-
CENTRAL IDAHO MOUNTAINS


CITY           SKY/WX    TMP DP  RH WIND       PRES   REMARKS
MCCALL         CLEAR     51  42  71 CALM      30.25R
HAILEY         CLEAR     54  46  76 NW14      30.31R
STANLEY          N/A     45  44  97 E3        30.41S
SALMON         PTCLDY    52  48  87 CALM      30.25S
CHALLIS        CLEAR     51  44  77 CALM      30.31S
$$

IDZ002-004-006-007-026-311300-
NORTHERN IDAHO


CITY           SKY/WX    TMP DP  RH WIND       PRES   REMARKS
LEWISTON       CLEAR     72  47  40 E6        30.01R
LOWELL           N/A     61  54  77 NW7       30.11R
COEUR D`ALENE  CLEAR     57  48  72 E8        30.05S
MULLAN PASS    CLEAR     68  36  30 NW5       30.30S
$$



USA.gov is the U.S. government's official web portal to all federal, state and local government web resources and services.